Change the Weather History Date:

Friday, April 5, 2013

  Actual Average (KCEW) Record (KCEW)
Temperature  
Mean Temperature 56 °F -  
Max Temperature 63 °F 76 °F 86 °F (1999)
Min Temperature 50 °F 53 °F 34 °F (2004)
Degree Days  
Heating Degree Days 8    
Growing Degree Days 6 (Base 50)    
Moisture  
Dew Point 49 °F    
Average Humidity 85    
Maximum Humidity 100    
Minimum Humidity 54    
Precipitation  
Precipitation 0.05 in - - ()
Sea Level Pressure  
Sea Level Pressure 29.99 in    
Wind  
Wind Speed 5 mph (North)    
Max Wind Speed 12 mph    
Max Gust Speed 21 mph    
Visibility 7 miles    
Events      
Averages and records for this station are not official NWS values.
T = Trace of Precipitation, MM = Missing Value Source: NWS Daily Summary

Daily Weather History Graph

Daily Weather History Graph

Search for Another Location

Airport or City:

Trip Planner

Search our weather history database for the weather conditions in past years. The results will help you decide how hot, cold, wet, or windy it might be!

Date:

Astronomy

Apr. 05, 2013 Rise Set
Actual Time 6:28 AM CDT 7:07 PM CDT
Civil Twilight 6:04 AM CDT 7:31 PM CDT
Nautical Twilight 5:35 AM CDT 8:00 PM CDT
Astronomical Twilight 5:06 AM CDT 8:29 PM CDT
Moon 3:17 AM CDT (4/5) 2:47 PM CDT (4/5)
Length of Visible Light 13h 27m
Length of Day
12h 38m
Waning Crescent, 23% of the Moon is Illuminated
Apr 5
Waning Crescent
Apr 10
New
Apr 18
First Quarter
Apr 25
Full
May 2
Last Quarter

Hourly Weather History & Observations

Time (CDT) Temp. Dew Point Humidity Pressure Visibility Wind Dir Wind Speed Gust Speed Precip Events Conditions
12:27 AM 55.4 °F 53.6 °F 94% 29.91 in 2.5 mi NNE 4.6 mph - N/A   Overcast
12:58 AM 55.0 °F 53.1 °F 93% 29.91 in 2.0 mi NNE 5.8 mph - 0.01 in   Overcast
1:21 AM 55.4 °F 53.6 °F 94% 29.93 in 1.8 mi Variable 3.5 mph - 0.02 in   Overcast
1:34 AM 55.4 °F 53.6 °F 94% 29.93 in 2.5 mi Calm Calm - 0.04 in   Overcast
1:46 AM 55.4 °F 53.6 °F 94% 29.92 in 3.0 mi North 5.8 mph - 0.04 in   Overcast
1:58 AM 55.0 °F 53.1 °F 93% 29.91 in 3.0 mi NNE 8.1 mph - 0.04 in   Overcast
2:37 AM 53.6 °F 51.8 °F 94% 29.92 in 2.5 mi North 8.1 mph - N/A   Overcast
2:44 AM 53.6 °F 51.8 °F 94% 29.92 in 3.0 mi North 4.6 mph - N/A   Overcast
2:56 AM 53.6 °F 51.8 °F 94% 29.93 in 2.5 mi Variable 4.6 mph - N/A   Overcast
2:58 AM 53.1 °F 52.0 °F 96% 29.92 in 2.5 mi Variable 5.8 mph - N/A   Overcast
3:23 AM 53.6 °F 51.8 °F 94% 29.92 in 3.0 mi NNE 6.9 mph - N/A   Overcast
3:31 AM 53.6 °F 51.8 °F 94% 29.93 in 2.5 mi North 8.1 mph - N/A   Overcast
3:40 AM 53.6 °F 51.8 °F 94% 29.93 in 1.8 mi North 5.8 mph - N/A   Overcast
3:48 AM 53.6 °F 51.8 °F 94% 29.93 in 2.0 mi North 4.6 mph - N/A   Overcast
3:58 AM 53.1 °F 51.1 °F 93% 29.93 in 2.5 mi North 6.9 mph - N/A   Overcast
4:33 AM 51.8 °F 51.8 °F 100% 29.94 in 3.0 mi North 5.8 mph - N/A   Overcast
4:58 AM 52.0 °F 51.1 °F 97% 29.94 in 6.0 mi North 6.9 mph - N/A   Overcast
5:58 AM 52.0 °F 50.0 °F 93% 29.96 in 8.0 mi Variable 5.8 mph - N/A   Overcast
6:58 AM 52.0 °F 48.9 °F 89% 29.99 in 10.0 mi Variable 5.8 mph - N/A   Overcast
7:15 AM 51.8 °F 48.2 °F 88% 30.00 in 9.0 mi North 4.6 mph - N/A   Overcast
7:51 AM 51.8 °F 48.2 °F 88% 30.01 in 10.0 mi North 9.2 mph 16.1 mph N/A   Overcast
7:58 AM 51.1 °F 48.0 °F 89% 30.01 in 10.0 mi North 6.9 mph 16.1 mph N/A   Overcast
8:58 AM 51.1 °F 46.9 °F 86% 30.04 in 10.0 mi Variable 5.8 mph - N/A   Overcast
9:58 AM 51.1 °F 45.0 °F 80% 30.06 in 10.0 mi North 11.5 mph - N/A   Overcast
10:58 AM 51.1 °F 46.0 °F 83% 30.08 in 10.0 mi North 5.8 mph - N/A   Overcast
11:58 AM 51.1 °F 46.0 °F 83% 30.07 in 10.0 mi North 6.9 mph - N/A   Overcast
12:58 PM 55.0 °F 46.0 °F 72% 30.06 in - North 4.6 mph - N/A   Overcast
1:05 PM 55.4 °F 46.4 °F 72% 30.06 in - NNE 5.8 mph - N/A   Overcast
1:58 PM 57.0 °F 46.0 °F 67% 30.05 in 10.0 mi North 6.9 mph - N/A   Overcast
2:58 PM 57.9 °F 46.0 °F 65% 30.04 in 10.0 mi North 8.1 mph - N/A   Overcast
3:51 PM 60.8 °F 46.4 °F 59% 30.02 in 10.0 mi North 6.9 mph - N/A   Scattered Clouds
3:58 PM 62.1 °F 46.0 °F 56% 30.02 in 10.0 mi NNE 8.1 mph 20.7 mph N/A   Scattered Clouds
4:58 PM 63.0 °F 46.0 °F 54% 30.03 in 10.0 mi NNW 6.9 mph - N/A   Partly Cloudy
5:58 PM 63.0 °F 46.0 °F 54% 30.03 in 10.0 mi North 6.9 mph - N/A   Clear
6:58 PM 57.9 °F 48.0 °F 70% 30.04 in 10.0 mi Calm Calm - N/A   Clear
7:58 PM 53.1 °F 48.0 °F 83% 30.06 in 10.0 mi Calm Calm - N/A   Clear
8:58 PM 51.1 °F 48.0 °F 89% 30.08 in 10.0 mi Calm Calm - N/A   Clear
9:58 PM 50.0 °F 46.9 °F 89% 30.10 in 10.0 mi Calm Calm - N/A   Clear
10:58 PM 51.1 °F 46.9 °F 86% 30.10 in 10.0 mi Calm Calm - N/A   Clear
11:58 PM 51.1 °F 46.0 °F 83% 30.10 in 10.0 mi NNW 3.5 mph - N/A   Clear